FW3968 Weather Reports


Display with metric or nautical units.
time (UTC)temp
F
wind
direction
speed
MPH
gust
MPH
rain 1hr
in
rain 24hr
in
rain mn
in
humidity
%
barometer
mb
20260504202605 59 50 4.0 7.0 0.00 0.00 0.00 57 1005.6
20260504200606 59 342 5.0 7.0 0.00 0.00 0.00 57 1005.7
20260504195605 59 11 4.0 8.0 0.00 0.00 0.00 55 1005.4
20260504194604 59 26 4.0 7.0 0.00 0.00 0.00 57 1005.6
20260504193606 59 348 6.0 12.0 0.00 0.00 0.00 55 1005.5
20260504192607 59 339 7.0 13.0 0.00 0.00 0.00 57 1005.7
20260504191605 59 25 5.0 12.0 0.00 0.00 0.00 57 1005.6
20260504190605 58 6 5.0 7.0 0.00 0.00 0.00 58 1005.7
20260504185704 57 351 6.0 10.0 0.00 0.00 0.00 59 1005.8
20260504184803 57 351 3.0 8.0 0.00 0.00 0.00 60 1005.8
20260504183804 57 56 3.0 4.0 0.00 0.00 0.00 59 1005.9
20260504182805 57 168 5.0 8.0 0.00 0.00 0.00 60 1006.0
20260504181805 56 156 6.0 10.0 0.00 0.00 0.00 61 1006.2
20260504180903 55 342 5.0 7.0 0.00 0.00 0.00 61 1006.1
20260504175905 55 337 3.0 5.0 0.00 0.00 0.00 61 1006.3
20260504175003 55 52 3.0 4.0 0.00 0.00 0.00 59 1006.4
20260504173103 55 180 2.0 4.0 0.00 0.00 0.00 56 1006.1
20260504172106 56 332 4.0 7.0 0.00 0.00 0.00 56 1006.1
20260504171104 55 360 2.0 4.0 0.00 0.00 0.00 56 1006.0
20260504170203 55 339 5.0 8.0 0.00 0.00 0.00 57 1005.7
20260504160304 57 78 4.0 5.0 0.00 0.00 0.00 53 1005.6
20260504150505 55 281 7.0 7.0 0.00 0.00 0.00 52 1006.4
20260504140704 55 157 11.0 11.0 0.00 0.00 0.00 48 1007.2
20260504130725 51 247 4.0 6.0 0.00 0.00 0.00 51 1007.9
20260504100126 34 96 1.0 2.0 0.00 0.00 0.00 86 1007.4
20260504090126 34 135 0.0 0.0 0.00 0.00 0.00 80 1006.8
20260504081127 36 12 0.0 1.0 0.00 0.00 0.00 74 1007.0
20260504080227 37 360 0.0 0.0 0.00 0.00 0.00 74 1006.8
20260504070227 38 19 1.0 2.0 0.00 0.00 0.00 70 1006.7
20260504045526 40 342 1.0 2.0 0.00 0.00 0.00 67 1006.1
20260504044541 40 328 3.0 5.0 0.00 0.00 0.00 68 1006.0
20260504043627 40 335 3.0 5.0 0.00 0.00 0.00 67 1005.9
20260504042725 40 327 2.0 3.0 0.00 0.00 0.00 67 1005.8
20260504041728 41 329 2.0 3.0 0.00 0.00 0.00 65 1005.9
20260504035804 41 355 3.0 6.0 0.00 0.00 0.00 65 1005.7
20260504034903 42 329 3.0 5.0 0.00 0.00 0.00 64 1005.6
20260504033904 42 338 4.0 8.0 0.00 0.00 0.00 64 1005.5
20260504032922 42 354 2.0 6.0 0.00 0.00 0.00 64 1005.5
20260504031906 42 336 3.0 9.0 0.00 0.00 0.00 64 1005.4
20260504030003 42 334 4.0 8.0 0.00 0.00 0.00 63 1005.2
20260504025003 42 356 2.0 6.0 0.00 0.00 0.00 63 1005.2
20260504023004 43 332 4.0 8.0 0.00 0.00 0.00 62 1005.1
20260504020006 43 356 3.0 4.0 0.00 0.00 0.00 64 1004.8
20260504015005 43 324 4.0 8.0 0.00 0.00 0.00 63 1004.7
20260504014005 43 349 4.0 6.0 0.00 0.00 0.00 65 1004.8
20260504011006 45 346 4.0 6.0 0.00 0.00 0.00 66 1004.5
20260504010005 45 334 5.0 10.0 0.00 0.00 0.00 69 1004.3
20260504005004 45 339 5.0 9.0 0.00 0.00 0.00 70 1004.1
20260504003005 45 331 6.0 9.0 0.00 0.00 0.00 78 1003.7
20260504002002 45 352 6.0 10.0 0.00 0.00 0.00 86 1003.5
20260504000003 46 337 1.0 3.0 0.00 0.00 0.00 86 1003.4
20260503234104 46 7 2.0 4.0 0.00 0.00 0.00 84 1003.2
20260503233106 46 10 3.0 5.0 0.00 0.00 0.00 84 1003.2
20260503232204 47 355 3.0 4.0 0.00 0.00 0.00 83 1003.1
20260503231302 47 343 2.0 4.0 0.00 0.00 0.00 82 1002.9
20260503230305 47 13 4.0 5.0 0.00 0.00 0.00 81 1002.9
20260503225305 47 24 7.0 13.0 0.00 0.00 0.00 81 1002.7
20260503223404 47 347 4.0 6.0 0.00 0.00 0.00 84 1002.6
20260503222502 47 355 5.0 7.0 0.00 0.00 0.00 84 1002.6
20260503221519 46 16 7.0 11.0 0.00 0.00 0.00 84 1002.6
20260503220504 46 357 7.0 12.0 0.00 0.00 0.00 86 1002.4
20260503215521 46 8 5.0 7.0 0.00 0.00 0.00 86 1002.6
20260503214506 46 349 7.0 9.0 0.00 0.00 0.00 88 1002.6
20260503212505 45 353 8.0 13.0 0.00 0.00 0.00 90 1002.7
20260503211520 45 355 5.0 9.0 0.00 0.00 0.00 92 1002.8
20260503210504 45 337 9.0 13.0 0.00 0.00 0.00 93 1002.9
20260503205505 44 348 6.0 10.0 0.00 0.00 0.00 94 1002.8
20260503204503 44 337 7.0 9.0 0.00 0.00 0.00 93 1002.9
20260503203522 44 351 8.0 12.0 0.00 0.00 0.00 94 1002.9